Вернуться в каталог

FENGYUN 1C DEB

АктивенSSO
NORAD 30150·DEBRIS·🇨🇳 China

Запущен May 10, 1999 с Taiyuan Satellite Launch Center

Loading…

Ближайшие Пролёты (ближайшие 24 часа)

TLE

СвежийSource: Space-Track

Эпоха: Sep 14, 2026, 08:14 UTC

1 30150U 99025TF  26257.34360898  .00000403  00000-0  35148-3 0  9998
2 30150  99.0277  28.3424 0145531 311.2971  73.9825 13.86945543992788

Отслеживайте FENGYUN 1C DEB в реальном времени с AllMySat

Download on the App Store